This demonstration page uses our WeatherBlox Daily Observations layout. Learn more.

Hourly Observations for March 17, 2015

Temp ( °F °C ) Dew Point ( °F °C ) Humidity (%) Winds ( mph kmh ) Pressure ( in mb ) Visibility ( mi km ) Precip ( " mm )
12:15 am 00:15 Clear 42 5.7 32 0 67 67 NNE 33 54 30.27 1025 10 16.0934 0 0
12:35 am 00:35 Clear 40 4.5 31 -0.4 71 71 NNE 28 44 30.3 1026 10 16.0934 0 0
12:55 am 00:55 Clear 39 3.7 31 -0.6 74 74 NNE 28 44 30.33 1027 10 16.0934 0 0
1:15 am 01:15 Clear 37 3 29 -1.4 73 73 NNE 30 48 30.33 1027 10 16.0934 0 0
1:35 am 01:35 Clear 36 2.3 29 -1.6 76 76 NNE 31 50 30.39 1029 10 16.0934 0 0
1:55 am 01:55 Clear 35 1.9 28 -2.2 75 75 NNE 31 50 30.39 1029 10 16.0934 0 0
2:15 am 02:15 Clear 35 1.5 27 -3 72 72 N 24 39 30.42 1030 10 16.0934 0 0
2:35 am 02:35 Clear 34 1.1 24 -4.5 67 67 N 26 43 30.42 1030 10 16.0934 0 0
2:55 am 02:55 Clear 33 0.8 23 -5.2 65 65 N 28 44 30.45 1031 10 16.0934 0 0
3:15 am 03:15 Clear 33 0.8 21 -6.1 60 60 N 26 43 30.45 1031 10 16.0934 0 0
3:35 am 03:35 Clear 33 0.5 20 -6.7 59 59 N 25 41 30.45 1031 10 16.0934 0 0
3:55 am 03:55 Clear 32 0.2 19 -7 59 59 N 23 37 30.45 1031 10 16.0934 0 0
4:15 am 04:15 Clear 32 0 18 -7.8 56 56 N 22 35 30.48 1032 10 16.0934 0 0
4:35 am 04:35 Clear 32 0 17 -8.2 54 54 N 21 33 30.48 1032 10 16.0934 0 0
4:55 am 04:55 Clear 32 -0.1 16 -8.7 53 53 N 22 35 30.48 1032 10 16.0934 0 0
5:15 am 05:15 Clear 32 -0.1 16 -9.1 51 51 N 24 39 30.48 1032 10 16.0934 0 0
5:35 am 05:35 Clear 31 -0.4 15 -9.6 50 50 NNE 25 41 30.48 1032 10 16.0934 0 0
5:55 am 05:55 Clear 31 -0.5 14 -10.1 49 49 N 23 37 30.53 1034 10 16.0934 0 0
6:15 am 06:15 Clear 31 -0.6 14 -10.2 49 49 NNE 18 30 30.53 1034 10 16.0934 0 0
6:35 am 06:35 Clear 31 -0.8 13 -10.3 49 49 N 20 31 30.56 1035 10 16.0934 0 0
6:55 am 06:55 Clear 30 -1 13 -10.4 49 49 N 17 28 30.56 1035 10 16.0934 0 0
7:15 am 07:15 Clear 30 -1.2 14 -10.2 51 51 N 17 28 30.56 1035 10 16.0934 0 0
7:35 am 07:35 Clear 29 -1.5 13 -10.3 52 52 N 17 28 30.56 1035 10 16.0934 0 0
7:55 am 07:55 Sunny 29 -1.5 13 -10.5 51 51 N 16 26 30.59 1036 10 16.0934 0 0
8:15 am 08:15 Sunny 29 -1.4 13 -10.7 50 50 N 14 22 30.59 1036 10 16.0934 0 0
8:35 am 08:35 Sunny 30 -1.1 11 -11.4 46 46 N 15 24 30.59 1036 10 16.0934 0 0
8:55 am 08:55 Sunny 31 -0.4 10 -12.5 40 40 N 17 28 30.59 1036 10 16.0934 0 0
9:15 am 09:15 Sunny 32 0 8 -13.4 36 36 N 22 35 30.59 1036 10 16.0934 0 0
9:35 am 09:35 Sunny 33 0.4 8 -13.3 35 35 NNE 16 26 30.59 1036 10 16.0934 0 0
9:55 am 09:55 Sunny 34 1.2 8 -13.4 33 33 NNE 22 35 30.56 1035 10 16.0934 0 0
10:15 am 10:15 Sunny 35 1.7 7 -13.9 31 31 NNE 22 35 30.59 1036 10 16.0934 0 0
10:35 am 10:35 Sunny 37 2.6 7 -13.9 29 29 NNE 21 33 30.59 1036 10 16.0934 0 0
10:55 am 10:55 Sunny 38 3.3 6 -14.4 26 26 NNE 16 26 30.56 1035 10 16.0934 0 0
11:15 am 11:15 Sunny 38 3.6 4 -15.5 23 23 NE 17 28 30.59 1036 10 16.0934 0 0
11:35 am 11:35 Sunny 39 4 3 -16 22 22 NE 16 26 30.59 1036 10 16.0934 0 0
11:55 am 11:55 Sunny 40 4.7 3 -16 21 21 NNE 14 22 30.56 1035 10 16.0934 0 0
12:15 pm 12:15 Sunny 41 5.2 2 -16.8 19 19 ENE 16 26 30.53 1034 10 16.0934 0 0
12:35 pm 12:35 Sunny 42 5.4 2 -16.5 19 19 NE 16 26 30.53 1034 10 16.0934 0 0
12:55 pm 12:55 Sunny 42 5.7 0 -17.7 17 17 ENE 13 20 30.53 1034 10 16.0934 0 0
1:15 pm 13:15 Sunny 43 6.1 -1 -18.1 16 16 NE 15 24 30.53 1034 10 16.0934 0 0
1:35 pm 13:35 Sunny 44 6.9 0 -17.8 15 15 NE 16 26 30.5 1033 10 16.0934 0 0
1:55 pm 13:55 Sunny 44 6.6 -2 -18.7 14 14 ENE 14 22 30.48 1032 10 16.0934 0 0
2:15 pm 14:15 Sunny 45 7.3 -1 -18.3 14 14 NE 12 19 30.48 1032 10 16.0934 0 0
2:35 pm 14:35 Sunny 45 7.4 -1 -18.6 14 14 ENE 14 22 30.48 1032 10 16.0934 0 0
2:55 pm 14:55 Sunny 47 8.3 -1 -18.3 13 13 ENE 14 22 30.45 1031 10 16.0934 0 0
3:15 pm 15:15 Sunny 47 8.6 0 -18 13 13 ENE 13 20 30.45 1031 10 16.0934 0 0
3:35 pm 15:35 Sunny 47 8.6 0 -17.9 14 14 E 13 20 30.42 1030 10 16.0934 0 0
3:55 pm 15:55 Sunny 48 8.7 -1 -18.3 13 13 ENE 14 22 30.42 1030 10 16.0934 0 0
4:15 pm 16:15 Sunny 48 9 0 -18 13 13 E 14 22 30.39 1029 10 16.0934 0 0
4:35 pm 16:35 Sunny 49 9.3 1 -17.5 13 13 E 15 24 30.39 1029 10 16.0934 0 0
4:55 pm 16:55 Sunny 49 9.3 0 -17.7 13 13 ENE 14 22 30.39 1029 10 16.0934 0 0
5:15 pm 17:15 Sunny 49 9.3 1 -17.1 14 14 ENE 14 22 30.33 1027 10 16.0934 0 0
5:35 pm 17:35 Sunny 49 9.3 1 -17.5 13 13 E 13 20 30.33 1027 10 16.0934 0 0
5:55 pm 17:55 Sunny 48 9 1 -17.5 14 14 ENE 13 20 30.33 1027 10 16.0934 0 0
6:15 pm 18:15 Sunny 48 9 0 -17.6 13 13 E 14 22 30.3 1026 10 16.0934 0 0
6:35 pm 18:35 Sunny 48 8.7 0 -17.9 13 13 E 13 20 30.3 1026 10 16.0934 0 0
6:55 pm 18:55 Sunny 47 8.3 0 -18 14 14 ENE 17 28 30.33 1027 10 16.0934 0 0
7:15 pm 19:15 Sunny 46 7.5 -1 -18.6 14 14 E 14 22 30.3 1026 10 16.0934 0 0
7:35 pm 19:35 Sunny 44 6.8 0 -18 15 15 E 10 17 30.33 1027 10 16.0934 0 0
7:55 pm 19:55 Clear 42 5.7 0 -17.8 17 17 E 9 15 30.3 1026 10 16.0934 0 0
8:15 pm 20:15 Clear 39 3.9 1 -17.2 20 20 E 9 15 30.33 1027 10 16.0934 0 0
8:35 pm 20:35 Clear 39 3.8 1 -17 20 20 E 8 13 30.36 1028 10 16.0934 0 0
8:55 pm 20:55 Clear 36 2 1 -17.5 22 22 E 6 9 30.39 1029 10 16.0934 0 0
9:15 pm 21:15 Clear 35 1.6 2 -16.8 24 24 E 6 9 30.39 1029 10 16.0934 0 0
9:35 pm 21:35 Clear 33 0.8 2 -16.9 25 25 E 7 11 30.39 1029 10 16.0934 0 0
9:55 pm 21:55 Clear 33 0.8 2 -16.5 26 26 E 8 13 30.39 1029 10 16.0934 0 0
10:15 pm 22:15 Clear 35 1.8 4 -15.5 27 27 E 8 13 30.39 1029 10 16.0934 0 0
10:35 pm 22:35 Clear 37 2.7 4 -15.5 25 25 E 8 13 30.36 1028 10 16.0934 0 0
10:55 pm 22:55 Clear 36 2.3 4 -15.5 26 26 E 8 13 30.39 1029 10 16.0934 0 0
11:15 pm 23:15 Clear 36 2.1 5 -15 27 27 E 8 13 30.39 1029 10 16.0934 0 0
11:35 pm 23:35 Clear 34 1 5 -14.8 30 30 E 8 13 30.39 1029 10 16.0934 0 0
11:55 pm 23:55 Clear 32 -0.1 6 -14.7 33 33 E 7 11 30.36 1028 10 16.0934 0 0

Powered by AerisWeather